NORTHEAST SUFFOLK  -  Special Weather Statement Special Weather Statement        NORTHERN NASSAU  -  Special Weather Statement Special Weather Statement        NORTHWEST SUFFOLK  -  Special Weather Statement Special Weather Statement        SOUTHEAST SUFFOLK  -  Special Weather Statement Special Weather Statement        SOUTHERN NASSAU  -  Special Weather Statement Special Weather Statement        SOUTHWEST SUFFOLK  -  Special Weather Statement Special Weather Statement      

Active alerts

Northern Nassau
  Details for Northern Nassau Special Weather Statement
Southern Nassau
  Details for Southern Nassau Special Weather Statement
Northwest Suffolk
  Details for Northwest Suffolk Special Weather Statement
Southwest Suffolk
  Details for Southwest Suffolk Special Weather Statement
Northeast Suffolk
  Details for Northeast Suffolk Special Weather Statement
Southeast Suffolk
  Details for Southeast Suffolk Special Weather Statement


WXM80 ListenWXM80 Stop

You find our weather info also at:

UK Metoffice

WeatherCloud

Weather Underground

Northeastern Weather Network

AWEKAS

Citizen Weather Observer Program (CWOP)

HAMweather, WeatherForYou, PWS Weather


Weather Underground History page Text

Daily Summary for April 11, 2017 Units:  Both    English   Metric
« Previous Day
Next Day »
Daily Weekly Monthly Yearly Custom
  High: Low: Average:
Temperature: 80.3 °F /  26.8 °C 51.4 °F /  10.8 °C 62.8 °F /  17.1 °C
Dew Point: 57.7 °F /  14.3 °C 46.8 °F /  8.2 °C 51.8 °F /  11 °C
Humidity: 87 % 43 % 69 %
Wind Speed: 9.0 mph /  14.5 km/h - 2.8 mph /  4.5 km/h
Wind Gust: 14.0 mph /  22.5 km/h - -
Wind:- - South
Pressure: 30.12 in /  1019.9 hPa 30.03 in /  1016.8 hPa -
Precipitation: 0.00 in /  0 mm    
Historical Graphs
 
 
Tabular Data for April 11, 2017
Time Temperature Dew Point Pressure Wind Wind Speed Wind Gust Humidity Rainfall Rate (Hourly)
00:00 58.1 °F /  14.5 °C 47.2 °F /  8.4 °C 30.09 in /  1018.8 hPa SW 7.2 mph /  11.6 km/h 8.1 mph /  13 km/h 67 % 0.00 in /  0 mm
00:05 58.2 °F /  14.6 °C 47.3 °F /  8.5 °C 30.09 in /  1018.8 hPa SSW 4.3 mph /  6.9 km/h 8.0 mph /  12.9 km/h 67 % 0.00 in /  0 mm
00:15 58.3 °F /  14.6 °C 47.4 °F /  8.6 °C 30.09 in /  1018.8 hPa SW 2.3 mph /  3.7 km/h 4.6 mph /  7.4 km/h 67 % 0.00 in /  0 mm
00:20 58.4 °F /  14.7 °C 47.5 °F /  8.6 °C 30.09 in /  1018.8 hPa SSW 3.6 mph /  5.8 km/h 9.2 mph /  14.8 km/h 67 % 0.00 in /  0 mm
00:25 58.3 °F /  14.6 °C 47.4 °F /  8.6 °C 30.10 in /  1019.2 hPa SW 6.2 mph /  10 km/h 10.4 mph /  16.7 km/h 67 % 0.00 in /  0 mm
00:30 58.3 °F /  14.6 °C 47.4 °F /  8.6 °C 30.10 in /  1019.2 hPa South 2.2 mph /  3.5 km/h 5.8 mph /  9.3 km/h 67 % 0.00 in /  0 mm
00:40 58.2 °F /  14.6 °C 47.7 °F /  8.7 °C 30.09 in /  1018.8 hPa SSW 2.9 mph /  4.7 km/h 5.8 mph /  9.3 km/h 68 % 0.00 in /  0 mm
00:46 58.1 °F /  14.5 °C 47.6 °F /  8.7 °C 30.09 in /  1018.8 hPa SW 1.9 mph /  3.1 km/h 4.0 mph /  6.4 km/h 68 % 0.00 in /  0 mm
00:51 58.0 °F /  14.4 °C 47.5 °F /  8.6 °C 30.09 in /  1018.8 hPa SSW 3.9 mph /  6.3 km/h 6.9 mph /  11.1 km/h 68 % 0.00 in /  0 mm
00:56 57.9 °F /  14.4 °C 47.4 °F /  8.6 °C 30.09 in /  1018.8 hPa SSW 1.4 mph /  2.3 km/h 7.0 mph /  11.3 km/h 68 % 0.00 in /  0 mm
01:01 57.7 °F /  14.3 °C 47.6 °F /  8.7 °C 30.09 in /  1018.8 hPa SSW 2.5 mph /  4 km/h 4.6 mph /  7.4 km/h 69 % 0.00 in /  0 mm
01:06 57.5 °F /  14.2 °C 47.4 °F /  8.6 °C 30.09 in /  1018.8 hPa WSW 4.7 mph /  7.6 km/h 8.1 mph /  13 km/h 69 % 0.00 in /  0 mm
01:11 57.3 °F /  14.1 °C 47.6 °F /  8.7 °C 30.09 in /  1018.8 hPa WSW 2.0 mph /  3.2 km/h 6.9 mph /  11.1 km/h 70 % 0.00 in /  0 mm
01:16 57.2 °F /  14 °C 47.5 °F /  8.6 °C 30.09 in /  1018.8 hPa WSW 2.6 mph /  4.2 km/h 6.0 mph /  9.7 km/h 70 % 0.00 in /  0 mm
01:21 57.1 °F /  13.9 °C 47.8 °F /  8.8 °C 30.09 in /  1018.8 hPa SW 3.1 mph /  5 km/h 5.8 mph /  9.3 km/h 71 % 0.00 in /  0 mm
01:26 57.0 °F /  13.9 °C 47.7 °F /  8.7 °C 30.09 in /  1018.8 hPa SW 2.6 mph /  4.2 km/h 4.6 mph /  7.4 km/h 71 % 0.00 in /  0 mm
01:31 56.9 °F /  13.8 °C 47.6 °F /  8.7 °C 30.09 in /  1018.8 hPa WSW 2.6 mph /  4.2 km/h 5.8 mph /  9.3 km/h 71 % 0.00 in /  0 mm
01:36 56.8 °F /  13.8 °C 47.9 °F /  8.8 °C 30.09 in /  1018.8 hPa SW 3.3 mph /  5.3 km/h 6.9 mph /  11.1 km/h 72 % 0.00 in /  0 mm
01:41 56.7 °F /  13.7 °C 47.8 °F /  8.8 °C 30.09 in /  1018.8 hPa SSW 2.9 mph /  4.7 km/h 6.0 mph /  9.7 km/h 72 % 0.00 in /  0 mm
01:46 56.6 °F /  13.7 °C 47.7 °F /  8.7 °C 30.09 in /  1018.8 hPa WSW 1.8 mph /  2.9 km/h 5.8 mph /  9.3 km/h 72 % 0.00 in /  0 mm
01:51 56.5 °F /  13.6 °C 47.6 °F /  8.7 °C 30.09 in /  1018.8 hPa SW 2.6 mph /  4.2 km/h 3.5 mph /  5.6 km/h 72 % 0.00 in /  0 mm
01:56 56.4 °F /  13.6 °C 47.9 °F /  8.8 °C 30.09 in /  1018.8 hPa SSW 3.1 mph /  5 km/h 5.8 mph /  9.3 km/h 73 % 0.00 in /  0 mm
02:01 56.2 °F /  13.4 °C 47.7 °F /  8.7 °C 30.08 in /  1018.5 hPa SW 2.9 mph /  4.7 km/h 6.9 mph /  11.1 km/h 73 % 0.00 in /  0 mm
02:06 56.1 °F /  13.4 °C 47.6 °F /  8.7 °C 30.09 in /  1018.8 hPa SSW 4.3 mph /  6.9 km/h 6.9 mph /  11.1 km/h 73 % 0.00 in /  0 mm
02:11 56.0 °F /  13.3 °C 47.8 °F /  8.8 °C 30.09 in /  1018.8 hPa SSW 2.4 mph /  3.9 km/h 4.6 mph /  7.4 km/h 74 % 0.00 in /  0 mm
02:16 55.8 °F /  13.2 °C 47.6 °F /  8.7 °C 30.08 in /  1018.5 hPa SSW 2.4 mph /  3.9 km/h 4.0 mph /  6.4 km/h 74 % 0.00 in /  0 mm
02:21 55.7 °F /  13.2 °C 47.9 °F /  8.8 °C 30.08 in /  1018.5 hPa SW 1.9 mph /  3.1 km/h 5.8 mph /  9.3 km/h 75 % 0.00 in /  0 mm
02:26 55.5 °F /  13.1 °C 47.7 °F /  8.7 °C 30.08 in /  1018.5 hPa SSW 3.4 mph /  5.5 km/h 3.5 mph /  5.6 km/h 75 % 0.00 in /  0 mm
02:31 55.3 °F /  12.9 °C 47.9 °F /  8.8 °C 30.08 in /  1018.5 hPa SSW 2.2 mph /  3.5 km/h 4.0 mph /  6.4 km/h 76 % 0.00 in /  0 mm
02:36 55.1 °F /  12.8 °C 47.7 °F /  8.7 °C 30.08 in /  1018.5 hPa SSW 4.3 mph /  6.9 km/h 6.9 mph /  11.1 km/h 76 % 0.00 in /  0 mm
02:41 54.8 °F /  12.7 °C 47.7 °F /  8.7 °C 30.08 in /  1018.5 hPa SSW 2.9 mph /  4.7 km/h 4.0 mph /  6.4 km/h 77 % 0.00 in /  0 mm
02:46 54.7 °F /  12.6 °C 47.6 °F /  8.7 °C 30.07 in /  1018.2 hPa South 4.7 mph /  7.6 km/h 6.9 mph /  11.1 km/h 77 % 0.00 in /  0 mm
02:51 54.5 °F /  12.5 °C 47.4 °F /  8.6 °C 30.07 in /  1018.2 hPa SSW 2.3 mph /  3.7 km/h 3.5 mph /  5.6 km/h 77 % 0.00 in /  0 mm
02:56 54.4 °F /  12.4 °C 47.7 °F /  8.7 °C 30.07 in /  1018.2 hPa SSW 2.8 mph /  4.5 km/h 4.6 mph /  7.4 km/h 78 % 0.00 in /  0 mm
03:01 54.3 °F /  12.4 °C 47.6 °F /  8.7 °C 30.07 in /  1018.2 hPa SSW 3.4 mph /  5.5 km/h 4.6 mph /  7.4 km/h 78 % 0.00 in /  0 mm
03:06 54.2 °F /  12.3 °C 47.5 °F /  8.6 °C 30.07 in /  1018.2 hPa SW 3.5 mph /  5.6 km/h 8.1 mph /  13 km/h 78 % 0.00 in /  0 mm
03:11 54.1 °F /  12.3 °C 47.4 °F /  8.6 °C 30.07 in /  1018.2 hPa SSW 3.3 mph /  5.3 km/h 4.6 mph /  7.4 km/h 78 % 0.00 in /  0 mm
03:16 54.0 °F /  12.2 °C 47.6 °F /  8.7 °C 30.07 in /  1018.2 hPa SW 2.0 mph /  3.2 km/h 3.5 mph /  5.6 km/h 79 % 0.00 in /  0 mm
03:21 53.9 °F /  12.2 °C 47.5 °F /  8.6 °C 30.07 in /  1018.2 hPa SSW 1.8 mph /  2.9 km/h 4.0 mph /  6.4 km/h 79 % 0.00 in /  0 mm
03:27 53.8 °F /  12.1 °C 47.4 °F /  8.6 °C 30.07 in /  1018.2 hPa SSW 3.1 mph /  5 km/h 4.6 mph /  7.4 km/h 79 % 0.00 in /  0 mm
03:32 53.7 °F /  12.1 °C 47.3 °F /  8.5 °C 30.07 in /  1018.2 hPa SSW 3.7 mph /  6 km/h 5.8 mph /  9.3 km/h 79 % 0.00 in /  0 mm
03:37 53.6 °F /  12 °C 47.6 °F /  8.7 °C 30.06 in /  1017.8 hPa SSW 4.7 mph /  7.6 km/h 6.9 mph /  11.1 km/h 80 % 0.00 in /  0 mm
03:42 53.5 °F /  11.9 °C 47.5 °F /  8.6 °C 30.06 in /  1017.8 hPa SSW 2.2 mph /  3.5 km/h 4.6 mph /  7.4 km/h 80 % 0.00 in /  0 mm
03:47 53.4 °F /  11.9 °C 47.4 °F /  8.6 °C 30.06 in /  1017.8 hPa SSW 1.5 mph /  2.4 km/h 4.0 mph /  6.4 km/h 80 % 0.00 in /  0 mm
03:52 53.3 °F /  11.8 °C 47.3 °F /  8.5 °C 30.06 in /  1017.8 hPa SSW 1.7 mph /  2.7 km/h 3.5 mph /  5.6 km/h 80 % 0.00 in /  0 mm
03:57 53.2 °F /  11.8 °C 47.5 °F /  8.6 °C 30.06 in /  1017.8 hPa SW 2.7 mph /  4.3 km/h 4.6 mph /  7.4 km/h 81 % 0.00 in /  0 mm
04:02 53.1 °F /  11.7 °C 47.4 °F /  8.6 °C 30.07 in /  1018.2 hPa SW 3.0 mph /  4.8 km/h 4.0 mph /  6.4 km/h 81 % 0.00 in /  0 mm
04:07 53.0 °F /  11.7 °C 47.3 °F /  8.5 °C 30.07 in /  1018.2 hPa SW 0.9 mph /  1.4 km/h 3.5 mph /  5.6 km/h 81 % 0.00 in /  0 mm
04:12 52.9 °F /  11.6 °C 47.2 °F /  8.4 °C 30.07 in /  1018.2 hPa Calm     81 % 0.00 in /  0 mm
04:17 52.8 °F /  11.6 °C 47.1 °F /  8.4 °C 30.07 in /  1018.2 hPa SW 0.1 mph /  0.2 km/h 3.5 mph /  5.6 km/h 81 % 0.00 in /  0 mm
04:22 52.7 °F /  11.5 °C 47.4 °F /  8.6 °C 30.07 in /  1018.2 hPa SW 0.7 mph /  1.1 km/h 2.3 mph /  3.7 km/h 82 % 0.00 in /  0 mm
04:27 52.6 °F /  11.4 °C 47.3 °F /  8.5 °C 30.07 in /  1018.2 hPa SW 2.3 mph /  3.7 km/h 3.5 mph /  5.6 km/h 82 % 0.00 in /  0 mm
04:32 52.5 °F /  11.4 °C 47.2 °F /  8.4 °C 30.07 in /  1018.2 hPa South 3.4 mph /  5.5 km/h 4.0 mph /  6.4 km/h 82 % 0.00 in /  0 mm
04:37 52.4 °F /  11.3 °C 47.4 °F /  8.6 °C 30.07 in /  1018.2 hPa South 3.2 mph /  5.1 km/h 4.0 mph /  6.4 km/h 83 % 0.00 in /  0 mm
04:42 52.3 °F /  11.3 °C 47.3 °F /  8.5 °C 30.07 in /  1018.2 hPa SSW 2.3 mph /  3.7 km/h 3.5 mph /  5.6 km/h 83 % 0.00 in /  0 mm
04:47 52.2 °F /  11.2 °C 47.5 °F /  8.6 °C 30.07 in /  1018.2 hPa SW 0.8 mph /  1.3 km/h 3.5 mph /  5.6 km/h 84 % 0.00 in /  0 mm
04:52 52.1 °F /  11.2 °C 47.4 °F /  8.6 °C 30.07 in /  1018.2 hPa SSW 0.9 mph /  1.4 km/h 3.5 mph /  5.6 km/h 84 % 0.00 in /  0 mm
04:57 52.0 °F /  11.1 °C 47.3 °F /  8.5 °C 30.07 in /  1018.2 hPa SSW 1.2 mph /  1.9 km/h 2.3 mph /  3.7 km/h 84 % 0.00 in /  0 mm
05:02 51.9 °F /  11.1 °C 47.2 °F /  8.4 °C 30.07 in /  1018.2 hPa SSW 1.5 mph /  2.4 km/h 2.3 mph /  3.7 km/h 84 % 0.00 in /  0 mm
05:07 51.9 °F /  11.1 °C 47.2 °F /  8.4 °C 30.07 in /  1018.2 hPa SW 0.8 mph /  1.3 km/h 3.5 mph /  5.6 km/h 84 % 0.00 in /  0 mm
05:12 51.8 °F /  11 °C 47.4 °F /  8.6 °C 30.07 in /  1018.2 hPa SSW 1.8 mph /  2.9 km/h 3.5 mph /  5.6 km/h 85 % 0.00 in /  0 mm
05:17 51.7 °F /  10.9 °C 47.3 °F /  8.5 °C 30.07 in /  1018.2 hPa SSW 3.0 mph /  4.8 km/h 6.9 mph /  11.1 km/h 85 % 0.00 in /  0 mm
05:22 51.7 °F /  10.9 °C 47.3 °F /  8.5 °C 30.07 in /  1018.2 hPa SSW 0.7 mph /  1.1 km/h 3.5 mph /  5.6 km/h 85 % 0.00 in /  0 mm
05:27 51.7 °F /  10.9 °C 47.3 °F /  8.5 °C 30.07 in /  1018.2 hPa SW 2.4 mph /  3.9 km/h 2.4 mph /  3.9 km/h 85 % 0.00 in /  0 mm
05:32 51.7 °F /  10.9 °C 47.3 °F /  8.5 °C 30.08 in /  1018.5 hPa SSW 2.0 mph /  3.2 km/h 6.0 mph /  9.7 km/h 85 % 0.00 in /  0 mm
05:37 51.7 °F /  10.9 °C 47.3 °F /  8.5 °C 30.08 in /  1018.5 hPa SSW 3.0 mph /  4.8 km/h 6.0 mph /  9.7 km/h 85 % 0.00 in /  0 mm
05:42 51.7 °F /  10.9 °C 47.3 °F /  8.5 °C 30.08 in /  1018.5 hPa SW 1.7 mph /  2.7 km/h 3.5 mph /  5.6 km/h 85 % 0.00 in /  0 mm
05:47 51.7 °F /  10.9 °C 47.3 °F /  8.5 °C 30.08 in /  1018.5 hPa SSW 2.0 mph /  3.2 km/h 6.0 mph /  9.7 km/h 85 % 0.00 in /  0 mm
05:52 51.8 °F /  11 °C 47.4 °F /  8.6 °C 30.09 in /  1018.8 hPa SSW 1.0 mph /  1.6 km/h 4.0 mph /  6.4 km/h 85 % 0.00 in /  0 mm
05:57 51.8 °F /  11 °C 47.4 °F /  8.6 °C 30.09 in /  1018.8 hPa SSW 0.2 mph /  0.3 km/h 2.3 mph /  3.7 km/h 85 % 0.00 in /  0 mm
06:02 51.8 °F /  11 °C 47.4 °F /  8.6 °C 30.09 in /  1018.8 hPa SSW 1.0 mph /  1.6 km/h 3.5 mph /  5.6 km/h 85 % 0.00 in /  0 mm
06:03 51.8 °F /  11 °C 47.4 °F /  8.6 °C 30.09 in /  1018.8 hPa SSW 0.1 mph /  0.2 km/h 3.5 mph /  5.6 km/h 85 % 0.00 in /  0 mm
06:08 51.8 °F /  11 °C 47.4 °F /  8.6 °C 30.09 in /  1018.8 hPa SSW 0.5 mph /  0.8 km/h   85 % 0.00 in /  0 mm
06:13 51.8 °F /  11 °C 47.4 °F /  8.6 °C 30.09 in /  1018.8 hPa Calm   1.2 mph /  1.9 km/h 85 % 0.00 in /  0 mm
06:18 51.8 °F /  11 °C 47.4 °F /  8.6 °C 30.09 in /  1018.8 hPa Calm     85 % 0.00 in /  0 mm
06:23 51.8 °F /  11 °C 47.4 °F /  8.6 °C 30.09 in /  1018.8 hPa Calm     85 % 0.00 in /  0 mm
06:28 51.7 °F /  10.9 °C 47.0 °F /  8.3 °C 30.09 in /  1018.8 hPa Calm   2.3 mph /  3.7 km/h 84 % 0.00 in /  0 mm
06:33 51.6 °F /  10.9 °C 46.9 °F /  8.3 °C 30.09 in /  1018.8 hPa Calm   1.2 mph /  1.9 km/h 84 % 0.00 in /  0 mm
06:38 51.5 °F /  10.8 °C 46.8 °F /  8.2 °C 30.09 in /  1018.8 hPa SSW 0.2 mph /  0.3 km/h 1.2 mph /  1.9 km/h 84 % 0.00 in /  0 mm
06:43 51.4 °F /  10.8 °C 47.0 °F /  8.3 °C 30.09 in /  1018.8 hPa Calm     85 % 0.00 in /  0 mm
06:48 51.4 °F /  10.8 °C 47.0 °F /  8.3 °C 30.09 in /  1018.8 hPa Calm     85 % 0.00 in /  0 mm
06:53 51.4 °F /  10.8 °C 47.4 °F /  8.6 °C 30.09 in /  1018.8 hPa West 0.5 mph /  0.8 km/h 3.5 mph /  5.6 km/h 86 % 0.00 in /  0 mm
06:58 51.4 °F /  10.8 °C 47.4 °F /  8.6 °C 30.10 in /  1019.2 hPa Calm     86 % 0.00 in /  0 mm
07:03 51.5 °F /  10.8 °C 47.5 °F /  8.6 °C 30.10 in /  1019.2 hPa Calm     86 % 0.00 in /  0 mm
07:08 51.7 °F /  10.9 °C 47.6 °F /  8.7 °C 30.10 in /  1019.2 hPa Calm     86 % 0.00 in /  0 mm
07:13 51.9 °F /  11.1 °C 48.2 °F /  9 °C 30.11 in /  1019.5 hPa Calm     87 % 0.00 in /  0 mm
07:18 52.1 °F /  11.2 °C 48.0 °F /  8.9 °C 30.11 in /  1019.5 hPa WSW 0.7 mph /  1.1 km/h 4.0 mph /  6.4 km/h 86 % 0.00 in /  0 mm
07:23 52.5 °F /  11.4 °C 48.7 °F /  9.3 °C 30.11 in /  1019.5 hPa Calm     87 % 0.00 in /  0 mm
07:28 52.9 °F /  11.6 °C 49.1 °F /  9.5 °C 30.10 in /  1019.2 hPa SW 2.3 mph /  3.7 km/h 4.0 mph /  6.4 km/h 87 % 0.00 in /  0 mm
07:33 53.4 °F /  11.9 °C 49.3 °F /  9.6 °C 30.10 in /  1019.2 hPa South 1.4 mph /  2.3 km/h 3.5 mph /  5.6 km/h 86 % 0.00 in /  0 mm
07:39 53.9 °F /  12.2 °C 49.5 °F /  9.7 °C 30.10 in /  1019.2 hPa South 0.1 mph /  0.2 km/h 1.2 mph /  1.9 km/h 85 % 0.00 in /  0 mm
07:44 54.6 °F /  12.6 °C 49.9 °F /  9.9 °C 30.10 in /  1019.2 hPa SW 1.2 mph /  1.9 km/h 5.8 mph /  9.3 km/h 84 % 0.00 in /  0 mm
07:49 55.1 °F /  12.8 °C 50.0 °F /  10 °C 30.11 in /  1019.5 hPa SW 3.2 mph /  5.1 km/h 3.5 mph /  5.6 km/h 83 % 0.00 in /  0 mm
07:54 55.7 °F /  13.2 °C 50.3 °F /  10.2 °C 30.11 in /  1019.5 hPa WSW 2.1 mph /  3.4 km/h 5.8 mph /  9.3 km/h 82 % 0.00 in /  0 mm
07:59 56.3 °F /  13.5 °C 50.2 °F /  10.1 °C 30.11 in /  1019.5 hPa WSW 4.8 mph /  7.7 km/h 8.1 mph /  13 km/h 80 % 0.00 in /  0 mm
08:04 57.1 °F /  13.9 °C 50.3 °F /  10.2 °C 30.11 in /  1019.5 hPa SSW 3.4 mph /  5.5 km/h 6.9 mph /  11.1 km/h 78 % 0.00 in /  0 mm
08:09 57.8 °F /  14.3 °C 50.6 °F /  10.3 °C 30.11 in /  1019.5 hPa SW 1.7 mph /  2.7 km/h 5.8 mph /  9.3 km/h 77 % 0.00 in /  0 mm
08:19 59.2 °F /  15.1 °C 51.3 °F /  10.7 °C 30.11 in /  1019.5 hPa SW 3.9 mph /  6.3 km/h 6.9 mph /  11.1 km/h 75 % 0.00 in /  0 mm
08:24 59.9 °F /  15.5 °C 51.6 °F /  10.9 °C 30.11 in /  1019.5 hPa SW 5.1 mph /  8.2 km/h 7.0 mph /  11.3 km/h 74 % 0.00 in /  0 mm
08:29 60.5 °F /  15.8 °C 51.4 °F /  10.8 °C 30.11 in /  1019.5 hPa SW 4.2 mph /  6.8 km/h 8.1 mph /  13 km/h 72 % 0.00 in /  0 mm
08:34 61.1 °F /  16.2 °C 51.6 °F /  10.9 °C 30.11 in /  1019.5 hPa SW 3.2 mph /  5.1 km/h 4.6 mph /  7.4 km/h 71 % 0.00 in /  0 mm
08:39 61.7 °F /  16.5 °C 51.8 °F /  11 °C 30.11 in /  1019.5 hPa SW 4.1 mph /  6.6 km/h 6.9 mph /  11.1 km/h 70 % 0.00 in /  0 mm
08:44 62.2 °F /  16.8 °C 52.3 °F /  11.3 °C 30.11 in /  1019.5 hPa WSW 5.1 mph /  8.2 km/h 8.0 mph /  12.9 km/h 70 % 0.00 in /  0 mm
08:50 62.8 °F /  17.1 °C 52.9 °F /  11.6 °C 30.11 in /  1019.5 hPa SSW 3.3 mph /  5.3 km/h 4.6 mph /  7.4 km/h 70 % 0.00 in /  0 mm
08:55 63.5 °F /  17.5 °C 52.7 °F /  11.5 °C 30.10 in /  1019.2 hPa South 3.5 mph /  5.6 km/h 5.8 mph /  9.3 km/h 68 % 0.00 in /  0 mm
09:00 64.2 °F /  17.9 °C 53.8 °F /  12.1 °C 30.10 in /  1019.2 hPa SW 3.0 mph /  4.8 km/h 7.0 mph /  11.3 km/h 69 % 0.00 in /  0 mm
09:05 65.0 °F /  18.3 °C 52.5 °F /  11.4 °C 30.11 in /  1019.5 hPa South 5.4 mph /  8.7 km/h 9.2 mph /  14.8 km/h 64 % 0.00 in /  0 mm
09:10 65.5 °F /  18.6 °C 53.0 °F /  11.7 °C 30.11 in /  1019.5 hPa SSW 7.1 mph /  11.4 km/h 11.0 mph /  17.7 km/h 64 % 0.00 in /  0 mm
09:15 65.9 °F /  18.8 °C 52.5 °F /  11.4 °C 30.11 in /  1019.5 hPa SSW 5.5 mph /  8.9 km/h 10.4 mph /  16.7 km/h 62 % 0.00 in /  0 mm
09:20 66.3 °F /  19.1 °C 52.9 °F /  11.6 °C 30.12 in /  1019.9 hPa SW 4.3 mph /  6.9 km/h 8.1 mph /  13 km/h 62 % 0.00 in /  0 mm
09:25 66.6 °F /  19.2 °C 53.2 °F /  11.8 °C 30.12 in /  1019.9 hPa SW 2.9 mph /  4.7 km/h 4.6 mph /  7.4 km/h 62 % 0.00 in /  0 mm
09:30 67.0 °F /  19.4 °C 53.1 °F /  11.7 °C 30.12 in /  1019.9 hPa WNW 0.9 mph /  1.4 km/h 2.3 mph /  3.7 km/h 61 % 0.00 in /  0 mm
09:35 67.4 °F /  19.7 °C 52.6 °F /  11.4 °C 30.12 in /  1019.9 hPa WSW 5.3 mph /  8.5 km/h 7.0 mph /  11.3 km/h 59 % 0.00 in /  0 mm
09:40 67.7 °F /  19.8 °C 52.9 °F /  11.6 °C 30.12 in /  1019.9 hPa West 2.1 mph /  3.4 km/h 9.2 mph /  14.8 km/h 59 % 0.00 in /  0 mm
09:45 67.9 °F /  19.9 °C 53.0 °F /  11.7 °C 30.12 in /  1019.9 hPa NW 2.4 mph /  3.9 km/h 5.8 mph /  9.3 km/h 59 % 0.00 in /  0 mm
09:50 67.7 °F /  19.8 °C 51.9 °F /  11.1 °C 30.12 in /  1019.9 hPa WNW 3.1 mph /  5 km/h 6.0 mph /  9.7 km/h 57 % 0.00 in /  0 mm
09:55 66.8 °F /  19.3 °C 51.1 °F /  10.6 °C 30.12 in /  1019.9 hPa NW 2.6 mph /  4.2 km/h 3.5 mph /  5.6 km/h 57 % 0.00 in /  0 mm
10:00 65.4 °F /  18.6 °C 50.7 °F /  10.4 °C 30.12 in /  1019.9 hPa NW 2.9 mph /  4.7 km/h 5.0 mph /  8 km/h 59 % 0.00 in /  0 mm
10:05 63.9 °F /  17.7 °C 51.1 °F /  10.6 °C 30.12 in /  1019.9 hPa NW 0.7 mph /  1.1 km/h 2.3 mph /  3.7 km/h 63 % 0.00 in /  0 mm
10:11 63.8 °F /  17.7 °C 51.8 °F /  11 °C 30.12 in /  1019.9 hPa NNW 1.1 mph /  1.8 km/h 3.5 mph /  5.6 km/h 65 % 0.00 in /  0 mm
10:16 63.4 °F /  17.4 °C 51.0 °F /  10.6 °C 30.12 in /  1019.9 hPa ENE 1.6 mph /  2.6 km/h 2.3 mph /  3.7 km/h 64 % 0.00 in /  0 mm
10:21 63.1 °F /  17.3 °C 51.6 °F /  10.9 °C 30.12 in /  1019.9 hPa ENE 2.0 mph /  3.2 km/h 3.5 mph /  5.6 km/h 66 % 0.00 in /  0 mm
10:26 63.2 °F /  17.3 °C 52.1 °F /  11.2 °C 30.12 in /  1019.9 hPa NNE 1.4 mph /  2.3 km/h 3.5 mph /  5.6 km/h 67 % 0.00 in /  0 mm
10:31 62.9 °F /  17.2 °C 51.0 °F /  10.6 °C 30.12 in /  1019.9 hPa ENE 2.4 mph /  3.9 km/h 3.5 mph /  5.6 km/h 65 % 0.00 in /  0 mm
10:36 62.0 °F /  16.7 °C 50.1 °F /  10.1 °C 30.11 in /  1019.5 hPa ENE 2.0 mph /  3.2 km/h 3.5 mph /  5.6 km/h 65 % 0.00 in /  0 mm
10:41 61.8 °F /  16.6 °C 51.1 °F /  10.6 °C 30.11 in /  1019.5 hPa ENE 1.2 mph /  1.9 km/h 2.3 mph /  3.7 km/h 68 % 0.00 in /  0 mm
10:46 61.8 °F /  16.6 °C 51.9 °F /  11.1 °C 30.12 in /  1019.9 hPa ENE 2.3 mph /  3.7 km/h 3.5 mph /  5.6 km/h 70 % 0.00 in /  0 mm
10:51 62.6 °F /  17 °C 52.3 °F /  11.3 °C 30.12 in /  1019.9 hPa NE 1.2 mph /  1.9 km/h 3.5 mph /  5.6 km/h 69 % 0.00 in /  0 mm
10:56 63.0 °F /  17.2 °C 51.9 °F /  11.1 °C 30.11 in /  1019.5 hPa ENE 1.8 mph /  2.9 km/h 3.5 mph /  5.6 km/h 67 % 0.00 in /  0 mm
11:01 62.7 °F /  17.1 °C 51.2 °F /  10.7 °C 30.11 in /  1019.5 hPa NNE 3.7 mph /  6 km/h 4.6 mph /  7.4 km/h 66 % 0.00 in /  0 mm
11:06 63.5 °F /  17.5 °C 52.7 °F /  11.5 °C 30.11 in /  1019.5 hPa NNE 1.8 mph /  2.9 km/h 3.0 mph /  4.8 km/h 68 % 0.00 in /  0 mm
11:11 64.6 °F /  18.1 °C 53.0 °F /  11.7 °C 30.11 in /  1019.5 hPa NE 1.5 mph /  2.4 km/h 3.5 mph /  5.6 km/h 66 % 0.00 in /  0 mm
11:16 64.7 °F /  18.2 °C 51.8 °F /  11 °C 30.11 in /  1019.5 hPa ENE 1.7 mph /  2.7 km/h 3.5 mph /  5.6 km/h 63 % 0.00 in /  0 mm
11:21 65.3 °F /  18.5 °C 53.2 °F /  11.8 °C 30.11 in /  1019.5 hPa NNE 0.4 mph /  0.6 km/h 2.3 mph /  3.7 km/h 65 % 0.00 in /  0 mm
11:26 66.3 °F /  19.1 °C 54.6 °F /  12.6 °C 30.11 in /  1019.5 hPa NE 1.9 mph /  3.1 km/h 3.5 mph /  5.6 km/h 66 % 0.00 in /  0 mm
11:31 66.3 °F /  19.1 °C 52.4 °F /  11.3 °C 30.10 in /  1019.2 hPa ENE 2.5 mph /  4 km/h 3.5 mph /  5.6 km/h 61 % 0.00 in /  0 mm
11:36 66.7 °F /  19.3 °C 53.3 °F /  11.8 °C 30.10 in /  1019.2 hPa ENE 2.9 mph /  4.7 km/h 4.0 mph /  6.4 km/h 62 % 0.00 in /  0 mm
11:41 66.2 °F /  19 °C 52.8 °F /  11.6 °C 30.10 in /  1019.2 hPa ENE 1.3 mph /  2.1 km/h 2.3 mph /  3.7 km/h 62 % 0.00 in /  0 mm
11:46 66.7 °F /  19.3 °C 54.1 °F /  12.3 °C 30.10 in /  1019.2 hPa NE 1.5 mph /  2.4 km/h 3.5 mph /  5.6 km/h 64 % 0.00 in /  0 mm
11:51 66.5 °F /  19.2 °C 52.6 °F /  11.4 °C 30.10 in /  1019.2 hPa NE 1.7 mph /  2.7 km/h 3.5 mph /  5.6 km/h 61 % 0.00 in /  0 mm
11:56 67.1 °F /  19.5 °C 53.6 °F /  12 °C 30.10 in /  1019.2 hPa ENE 2.7 mph /  4.3 km/h 3.5 mph /  5.6 km/h 62 % 0.00 in /  0 mm
12:02 67.1 °F /  19.5 °C 54.1 °F /  12.3 °C 30.09 in /  1018.8 hPa NE 1.4 mph /  2.3 km/h 3.5 mph /  5.6 km/h 63 % 0.00 in /  0 mm
12:07 67.3 °F /  19.6 °C 53.8 °F /  12.1 °C 30.09 in /  1018.8 hPa NE 1.6 mph /  2.6 km/h 3.5 mph /  5.6 km/h 62 % 0.00 in /  0 mm
12:12 67.9 °F /  19.9 °C 54.0 °F /  12.2 °C 30.09 in /  1018.8 hPa ENE 1.3 mph /  2.1 km/h 2.3 mph /  3.7 km/h 61 % 0.00 in /  0 mm
12:17 67.9 °F /  19.9 °C 53.5 °F /  11.9 °C 30.09 in /  1018.8 hPa NE 2.4 mph /  3.9 km/h 3.5 mph /  5.6 km/h 60 % 0.00 in /  0 mm
12:22 68.4 °F /  20.2 °C 54.4 °F /  12.4 °C 30.08 in /  1018.5 hPa ENE 1.3 mph /  2.1 km/h 3.0 mph /  4.8 km/h 61 % 0.00 in /  0 mm
12:27 68.4 °F /  20.2 °C 55.3 °F /  12.9 °C 30.09 in /  1018.8 hPa NNE 1.2 mph /  1.9 km/h 3.5 mph /  5.6 km/h 63 % 0.00 in /  0 mm
12:32 69.3 °F /  20.7 °C 56.2 °F /  13.4 °C 30.08 in /  1018.5 hPa NNE 1.4 mph /  2.3 km/h 2.3 mph /  3.7 km/h 63 % 0.00 in /  0 mm
12:37 69.6 °F /  20.9 °C 53.7 °F /  12.1 °C 30.08 in /  1018.5 hPa ENE 1.5 mph /  2.4 km/h 3.5 mph /  5.6 km/h 57 % 0.00 in /  0 mm
12:42 69.8 °F /  21 °C 55.3 °F /  12.9 °C 30.08 in /  1018.5 hPa NE 2.4 mph /  3.9 km/h 3.5 mph /  5.6 km/h 60 % 0.00 in /  0 mm
12:47 70.8 °F /  21.6 °C 55.3 °F /  12.9 °C 30.08 in /  1018.5 hPa NE 2.1 mph /  3.4 km/h 3.0 mph /  4.8 km/h 58 % 0.00 in /  0 mm
12:52 70.5 °F /  21.4 °C 54.5 °F /  12.5 °C 30.08 in /  1018.5 hPa ENE 2.2 mph /  3.5 km/h 4.6 mph /  7.4 km/h 57 % 0.00 in /  0 mm
12:57 70.0 °F /  21.1 °C 54.5 °F /  12.5 °C 30.08 in /  1018.5 hPa ENE 2.7 mph /  4.3 km/h 3.5 mph /  5.6 km/h 58 % 0.00 in /  0 mm
13:02 70.0 °F /  21.1 °C 55.0 °F /  12.8 °C 30.08 in /  1018.5 hPa NE 1.6 mph /  2.6 km/h 3.5 mph /  5.6 km/h 59 % 0.00 in /  0 mm
13:07 70.0 °F /  21.1 °C 54.5 °F /  12.5 °C 30.08 in /  1018.5 hPa NE 2.3 mph /  3.7 km/h 3.5 mph /  5.6 km/h 58 % 0.00 in /  0 mm
13:12 70.6 °F /  21.4 °C 56.1 °F /  13.4 °C 30.08 in /  1018.5 hPa NE 1.0 mph /  1.6 km/h 3.0 mph /  4.8 km/h 60 % 0.00 in /  0 mm
13:17 71.1 °F /  21.7 °C 56.0 °F /  13.3 °C 30.08 in /  1018.5 hPa ENE 2.0 mph /  3.2 km/h 4.0 mph /  6.4 km/h 59 % 0.00 in /  0 mm
13:22 71.2 °F /  21.8 °C 55.6 °F /  13.1 °C 30.08 in /  1018.5 hPa ENE 1.0 mph /  1.6 km/h 3.0 mph /  4.8 km/h 58 % 0.00 in /  0 mm
13:27 71.5 °F /  21.9 °C 55.9 °F /  13.3 °C 30.07 in /  1018.2 hPa ENE 1.0 mph /  1.6 km/h 3.0 mph /  4.8 km/h 58 % 0.00 in /  0 mm
13:36 73.0 °F /  22.8 °C 57.3 °F /  14.1 °C 30.07 in /  1018.2 hPa South 5.8 mph /  9.3 km/h 11.5 mph /  18.5 km/h 58 % 0.00 in /  0 mm
13:41 74.5 °F /  23.6 °C 56.8 °F /  13.8 °C 30.06 in /  1017.8 hPa SE 6.7 mph /  10.8 km/h 9.2 mph /  14.8 km/h 54 % 0.00 in /  0 mm
13:46 75.5 °F /  24.2 °C 57.7 °F /  14.3 °C 30.06 in /  1017.8 hPa South 6.3 mph /  10.1 km/h 10.4 mph /  16.7 km/h 54 % 0.00 in /  0 mm
13:51 76.5 °F /  24.7 °C 57.0 °F /  13.9 °C 30.06 in /  1017.8 hPa SSE 4.1 mph /  6.6 km/h 8.1 mph /  13 km/h 51 % 0.00 in /  0 mm
13:56 77.1 °F /  25.1 °C 57.0 °F /  13.9 °C 30.07 in /  1018.2 hPa South 6.2 mph /  10 km/h 10.4 mph /  16.7 km/h 50 % 0.00 in /  0 mm
14:01 77.4 °F /  25.2 °C 56.7 °F /  13.7 °C 30.06 in /  1017.8 hPa South 3.7 mph /  6 km/h 9.2 mph /  14.8 km/h 49 % 0.00 in /  0 mm
14:06 78.1 °F /  25.6 °C 56.8 °F /  13.8 °C 30.06 in /  1017.8 hPa South 4.9 mph /  7.9 km/h 8.1 mph /  13 km/h 48 % 0.00 in /  0 mm
14:11 78.8 °F /  26 °C 55.7 °F /  13.2 °C 30.06 in /  1017.8 hPa SSE 4.2 mph /  6.8 km/h 8.1 mph /  13 km/h 45 % 0.00 in /  0 mm
14:17 79.0 °F /  26.1 °C 57.0 °F /  13.9 °C 30.06 in /  1017.8 hPa South 2.0 mph /  3.2 km/h 3.5 mph /  5.6 km/h 47 % 0.00 in /  0 mm
14:22 79.1 °F /  26.2 °C 56.5 °F /  13.6 °C 30.06 in /  1017.8 hPa South 1.9 mph /  3.1 km/h 3.5 mph /  5.6 km/h 46 % 0.00 in /  0 mm
14:27 79.7 °F /  26.5 °C 56.5 °F /  13.6 °C 30.06 in /  1017.8 hPa SW 2.7 mph /  4.3 km/h 7.0 mph /  11.3 km/h 45 % 0.00 in /  0 mm
14:32 79.8 °F /  26.6 °C 55.3 °F /  12.9 °C 30.06 in /  1017.8 hPa SE 7.9 mph /  12.7 km/h 12.7 mph /  20.4 km/h 43 % 0.00 in /  0 mm
14:37 79.8 °F /  26.6 °C 56.6 °F /  13.7 °C 30.05 in /  1017.5 hPa SE 2.1 mph /  3.4 km/h 4.6 mph /  7.4 km/h 45 % 0.00 in /  0 mm
14:42 80.0 °F /  26.7 °C 56.7 °F /  13.7 °C 30.05 in /  1017.5 hPa SSE 1.7 mph /  2.7 km/h 5.0 mph /  8 km/h 45 % 0.00 in /  0 mm
14:47 80.3 °F /  26.8 °C 55.8 °F /  13.2 °C 30.05 in /  1017.5 hPa South 8.6 mph /  13.8 km/h 12.7 mph /  20.4 km/h 43 % 0.00 in /  0 mm
14:52 79.3 °F /  26.3 °C 56.1 °F /  13.4 °C 30.05 in /  1017.5 hPa South 4.1 mph /  6.6 km/h 10.4 mph /  16.7 km/h 45 % 0.00 in /  0 mm
14:57 78.8 °F /  26 °C 55.7 °F /  13.2 °C 30.04 in /  1017.2 hPa South 4.4 mph /  7.1 km/h 6.9 mph /  11.1 km/h 45 % 0.00 in /  0 mm
15:02 78.8 °F /  26 °C 55.0 °F /  12.8 °C 30.04 in /  1017.2 hPa South 4.4 mph /  7.1 km/h 6.0 mph /  9.7 km/h 44 % 0.00 in /  0 mm
15:07 78.3 °F /  25.7 °C 55.2 °F /  12.9 °C 30.04 in /  1017.2 hPa South 5.1 mph /  8.2 km/h 11.5 mph /  18.5 km/h 45 % 0.00 in /  0 mm
15:12 78.3 °F /  25.7 °C 55.2 °F /  12.9 °C 30.05 in /  1017.5 hPa South 5.3 mph /  8.5 km/h 10.4 mph /  16.7 km/h 45 % 0.00 in /  0 mm
15:17 78.4 °F /  25.8 °C 54.7 °F /  12.6 °C 30.04 in /  1017.2 hPa SSW 1.5 mph /  2.4 km/h 3.5 mph /  5.6 km/h 44 % 0.00 in /  0 mm
15:22 78.6 °F /  25.9 °C 56.1 °F /  13.4 °C 30.04 in /  1017.2 hPa SSE 4.1 mph /  6.6 km/h 6.9 mph /  11.1 km/h 46 % 0.00 in /  0 mm
15:27 78.6 °F /  25.9 °C 56.7 °F /  13.7 °C 30.04 in /  1017.2 hPa South 5.0 mph /  8 km/h 7.0 mph /  11.3 km/h 47 % 0.00 in /  0 mm
15:32 78.5 °F /  25.8 °C 56.0 °F /  13.3 °C 30.04 in /  1017.2 hPa SE 4.4 mph /  7.1 km/h 6.9 mph /  11.1 km/h 46 % 0.00 in /  0 mm
15:37 78.5 °F /  25.8 °C 55.4 °F /  13 °C 30.04 in /  1017.2 hPa SSE 5.6 mph /  9 km/h 8.1 mph /  13 km/h 45 % 0.00 in /  0 mm
15:42 78.3 °F /  25.7 °C 56.4 °F /  13.6 °C 30.04 in /  1017.2 hPa SSE 2.6 mph /  4.2 km/h 6.9 mph /  11.1 km/h 47 % 0.00 in /  0 mm
15:48 78.4 °F /  25.8 °C 56.5 °F /  13.6 °C 30.04 in /  1017.2 hPa SSW 2.7 mph /  4.3 km/h 4.0 mph /  6.4 km/h 47 % 0.00 in /  0 mm
15:53 78.5 °F /  25.8 °C 55.4 °F /  13 °C 30.04 in /  1017.2 hPa SSW 2.3 mph /  3.7 km/h 10.4 mph /  16.7 km/h 45 % 0.00 in /  0 mm
15:58 78.3 °F /  25.7 °C 55.2 °F /  12.9 °C 30.04 in /  1017.2 hPa SSW 7.0 mph /  11.3 km/h 12.7 mph /  20.4 km/h 45 % 0.00 in /  0 mm
16:03 78.2 °F /  25.7 °C 56.3 °F /  13.5 °C 30.05 in /  1017.5 hPa South 1.8 mph /  2.9 km/h 4.6 mph /  7.4 km/h 47 % 0.00 in /  0 mm
16:08 77.9 °F /  25.5 °C 55.5 °F /  13.1 °C 30.05 in /  1017.5 hPa SSW 4.1 mph /  6.6 km/h 10.4 mph /  16.7 km/h 46 % 0.00 in /  0 mm
16:13 77.5 °F /  25.3 °C 55.7 °F /  13.2 °C 30.05 in /  1017.5 hPa SW 4.9 mph /  7.9 km/h 6.9 mph /  11.1 km/h 47 % 0.00 in /  0 mm
16:18 77.1 °F /  25.1 °C 55.3 °F /  12.9 °C 30.04 in /  1017.2 hPa SW 6.1 mph /  9.8 km/h 11.5 mph /  18.5 km/h 47 % 0.00 in /  0 mm
16:28 76.3 °F /  24.6 °C 55.7 °F /  13.2 °C 30.04 in /  1017.2 hPa SSW 4.5 mph /  7.2 km/h 9.0 mph /  14.5 km/h 49 % 0.00 in /  0 mm
16:33 76.0 °F /  24.4 °C 55.5 °F /  13.1 °C 30.05 in /  1017.5 hPa South 3.1 mph /  5 km/h 5.8 mph /  9.3 km/h 49 % 0.00 in /  0 mm
16:38 75.7 °F /  24.3 °C 55.7 °F /  13.2 °C 30.05 in /  1017.5 hPa South 2.1 mph /  3.4 km/h 4.6 mph /  7.4 km/h 50 % 0.00 in /  0 mm
16:43 75.2 °F /  24 °C 55.8 °F /  13.2 °C 30.04 in /  1017.2 hPa South 2.4 mph /  3.9 km/h 6.9 mph /  11.1 km/h 51 % 0.00 in /  0 mm
16:48 75.2 °F /  24 °C 56.9 °F /  13.8 °C 30.04 in /  1017.2 hPa SSE 1.0 mph /  1.6 km/h 4.6 mph /  7.4 km/h 53 % 0.00 in /  0 mm
16:53 75.3 °F /  24.1 °C 57.0 °F /  13.9 °C 30.04 in /  1017.2 hPa SSW 3.1 mph /  5 km/h 4.6 mph /  7.4 km/h 53 % 0.00 in /  0 mm
16:58 75.4 °F /  24.1 °C 56.5 °F /  13.6 °C 30.04 in /  1017.2 hPa South 5.0 mph /  8 km/h 10.4 mph /  16.7 km/h 52 % 0.00 in /  0 mm
17:03 75.2 °F /  24 °C 56.9 °F /  13.8 °C 30.04 in /  1017.2 hPa SSW 4.1 mph /  6.6 km/h 8.1 mph /  13 km/h 53 % 0.00 in /  0 mm
17:08 74.9 °F /  23.8 °C 56.1 °F /  13.4 °C 30.04 in /  1017.2 hPa South 3.6 mph /  5.8 km/h 6.9 mph /  11.1 km/h 52 % 0.00 in /  0 mm
17:13 74.5 °F /  23.6 °C 56.2 °F /  13.4 °C 30.04 in /  1017.2 hPa South 4.7 mph /  7.6 km/h 6.9 mph /  11.1 km/h 53 % 0.00 in /  0 mm
17:18 74.2 °F /  23.4 °C 56.5 °F /  13.6 °C 30.04 in /  1017.2 hPa North 5.2 mph /  8.4 km/h 6.9 mph /  11.1 km/h 54 % 0.00 in /  0 mm
17:23 73.7 °F /  23.2 °C 56.0 °F /  13.3 °C 30.04 in /  1017.2 hPa SSW 3.7 mph /  6 km/h 6.9 mph /  11.1 km/h 54 % 0.00 in /  0 mm
17:29 73.4 °F /  23 °C 55.7 °F /  13.2 °C 30.04 in /  1017.2 hPa South 1.1 mph /  1.8 km/h 2.3 mph /  3.7 km/h 54 % 0.00 in /  0 mm
17:34 73.2 °F /  22.9 °C 56.1 °F /  13.4 °C 30.04 in /  1017.2 hPa SW 2.8 mph /  4.5 km/h 4.0 mph /  6.4 km/h 55 % 0.00 in /  0 mm
17:39 73.0 °F /  22.8 °C 55.9 °F /  13.3 °C 30.05 in /  1017.5 hPa SSE 2.6 mph /  4.2 km/h 4.6 mph /  7.4 km/h 55 % 0.00 in /  0 mm
17:44 72.7 °F /  22.6 °C 56.1 °F /  13.4 °C 30.05 in /  1017.5 hPa SSW 3.6 mph /  5.8 km/h 9.2 mph /  14.8 km/h 56 % 0.00 in /  0 mm
17:49 72.4 °F /  22.4 °C 55.8 °F /  13.2 °C 30.05 in /  1017.5 hPa SSE 4.1 mph /  6.6 km/h 6.0 mph /  9.7 km/h 56 % 0.00 in /  0 mm
17:54 72.0 °F /  22.2 °C 55.9 °F /  13.3 °C 30.04 in /  1017.2 hPa South 2.3 mph /  3.7 km/h 3.5 mph /  5.6 km/h 57 % 0.00 in /  0 mm
17:59 71.7 °F /  22.1 °C 55.7 °F /  13.2 °C 30.04 in /  1017.2 hPa South 4.3 mph /  6.9 km/h 6.0 mph /  9.7 km/h 57 % 0.00 in /  0 mm
18:04 71.1 °F /  21.7 °C 55.6 °F /  13.1 °C 30.04 in /  1017.2 hPa South 6.5 mph /  10.5 km/h 10.4 mph /  16.7 km/h 58 % 0.00 in /  0 mm
18:09 70.4 °F /  21.3 °C 55.4 °F /  13 °C 30.04 in /  1017.2 hPa SSW 4.5 mph /  7.2 km/h 9.2 mph /  14.8 km/h 59 % 0.00 in /  0 mm
18:14 70.1 °F /  21.2 °C 55.6 °F /  13.1 °C 30.04 in /  1017.2 hPa South 4.2 mph /  6.8 km/h 9.2 mph /  14.8 km/h 60 % 0.00 in /  0 mm
18:19 69.9 °F /  21.1 °C 55.4 °F /  13 °C 30.04 in /  1017.2 hPa SW 3.6 mph /  5.8 km/h 9.2 mph /  14.8 km/h 60 % 0.00 in /  0 mm
18:24 69.6 °F /  20.9 °C 55.6 °F /  13.1 °C 30.04 in /  1017.2 hPa SSW 4.2 mph /  6.8 km/h 6.9 mph /  11.1 km/h 61 % 0.00 in /  0 mm
18:29 69.2 °F /  20.7 °C 55.2 °F /  12.9 °C 30.04 in /  1017.2 hPa SSW 7.2 mph /  11.6 km/h 11.5 mph /  18.5 km/h 61 % 0.00 in /  0 mm
18:34 68.9 °F /  20.5 °C 54.9 °F /  12.7 °C 30.04 in /  1017.2 hPa SSW 4.5 mph /  7.2 km/h 9.2 mph /  14.8 km/h 61 % 0.00 in /  0 mm
18:39 68.7 °F /  20.4 °C 55.2 °F /  12.9 °C 30.04 in /  1017.2 hPa South 1.5 mph /  2.4 km/h 4.6 mph /  7.4 km/h 62 % 0.00 in /  0 mm
18:45 68.5 °F /  20.3 °C 55.0 °F /  12.8 °C 30.04 in /  1017.2 hPa South 3.6 mph /  5.8 km/h 6.9 mph /  11.1 km/h 62 % 0.00 in /  0 mm
18:50 68.3 °F /  20.2 °C 55.2 °F /  12.9 °C 30.04 in /  1017.2 hPa SSW 4.6 mph /  7.4 km/h 9.2 mph /  14.8 km/h 63 % 0.00 in /  0 mm
18:55 67.9 °F /  19.9 °C 54.8 °F /  12.7 °C 30.03 in /  1016.8 hPa SW 5.8 mph /  9.3 km/h 8.1 mph /  13 km/h 63 % 0.00 in /  0 mm
19:00 67.6 °F /  19.8 °C 55.0 °F /  12.8 °C 30.03 in /  1016.8 hPa South 6.5 mph /  10.5 km/h 10.0 mph /  16.1 km/h 64 % 0.00 in /  0 mm
19:05 67.1 °F /  19.5 °C 54.5 °F /  12.5 °C 30.03 in /  1016.8 hPa South 6.2 mph /  10 km/h 10.4 mph /  16.7 km/h 64 % 0.00 in /  0 mm
19:10 66.6 °F /  19.2 °C 54.5 °F /  12.5 °C 30.03 in /  1016.8 hPa South 6.1 mph /  9.8 km/h 11.5 mph /  18.5 km/h 65 % 0.00 in /  0 mm
19:15 66.2 °F /  19 °C 54.5 °F /  12.5 °C 30.03 in /  1016.8 hPa SSW 6.1 mph /  9.8 km/h 9.2 mph /  14.8 km/h 66 % 0.00 in /  0 mm
19:20 65.8 °F /  18.8 °C 54.1 °F /  12.3 °C 30.03 in /  1016.8 hPa SSW 6.7 mph /  10.8 km/h 11.5 mph /  18.5 km/h 66 % 0.00 in /  0 mm
19:25 65.4 °F /  18.6 °C 54.2 °F /  12.3 °C 30.03 in /  1016.8 hPa South 6.4 mph /  10.3 km/h 10.4 mph /  16.7 km/h 67 % 0.00 in /  0 mm
19:30 65.0 °F /  18.3 °C 54.2 °F /  12.3 °C 30.03 in /  1016.8 hPa South 5.0 mph /  8 km/h 11.5 mph /  18.5 km/h 68 % 0.00 in /  0 mm
19:35 64.7 °F /  18.2 °C 53.9 °F /  12.2 °C 30.03 in /  1016.8 hPa SSW 8.0 mph /  12.9 km/h 12.0 mph /  19.3 km/h 68 % 0.00 in /  0 mm
19:40 64.3 °F /  17.9 °C 53.9 °F /  12.2 °C 30.03 in /  1016.8 hPa South 9.0 mph /  14.5 km/h 13.0 mph /  20.9 km/h 69 % 0.00 in /  0 mm
19:45 63.9 °F /  17.7 °C 53.9 °F /  12.2 °C 30.03 in /  1016.8 hPa South 6.3 mph /  10.1 km/h 9.2 mph /  14.8 km/h 70 % 0.00 in /  0 mm
19:50 63.7 °F /  17.6 °C 53.7 °F /  12.1 °C 30.03 in /  1016.8 hPa South 5.7 mph /  9.2 km/h 9.0 mph /  14.5 km/h 70 % 0.00 in /  0 mm
19:55 63.4 °F /  17.4 °C 53.8 °F /  12.1 °C 30.03 in /  1016.8 hPa South 5.7 mph /  9.2 km/h 10.4 mph /  16.7 km/h 71 % 0.00 in /  0 mm
20:00 63.2 °F /  17.3 °C 53.6 °F /  12 °C 30.03 in /  1016.8 hPa SW 6.2 mph /  10 km/h 10.4 mph /  16.7 km/h 71 % 0.00 in /  0 mm
20:05 63.0 °F /  17.2 °C 53.8 °F /  12.1 °C 30.03 in /  1016.8 hPa South 6.2 mph /  10 km/h 11.0 mph /  17.7 km/h 72 % 0.00 in /  0 mm
20:07 62.9 °F /  17.2 °C 53.7 °F /  12.1 °C 30.03 in /  1016.8 hPa South 5.9 mph /  9.5 km/h 11.5 mph /  18.5 km/h 72 % 0.00 in /  0 mm
20:12 62.6 °F /  17 °C 53.4 °F /  11.9 °C 30.03 in /  1016.8 hPa SSW 6.3 mph /  10.1 km/h 11.5 mph /  18.5 km/h 72 % 0.00 in /  0 mm
20:17 62.3 °F /  16.8 °C 53.5 °F /  11.9 °C 30.03 in /  1016.8 hPa South 8.0 mph /  12.9 km/h 12.0 mph /  19.3 km/h 73 % 0.00 in /  0 mm
20:22 62.0 °F /  16.7 °C 53.3 °F /  11.8 °C 30.03 in /  1016.8 hPa South 5.0 mph /  8 km/h 12.0 mph /  19.3 km/h 73 % 0.00 in /  0 mm
20:27 61.8 °F /  16.6 °C 53.4 °F /  11.9 °C 30.03 in /  1016.8 hPa South 6.0 mph /  9.7 km/h 14.0 mph /  22.5 km/h 74 % 0.00 in /  0 mm
20:32 61.5 °F /  16.4 °C 53.1 °F /  11.7 °C 30.04 in /  1017.2 hPa South 6.0 mph /  9.7 km/h 12.0 mph /  19.3 km/h 74 % 0.00 in /  0 mm
20:37 61.2 °F /  16.2 °C 53.2 °F /  11.8 °C 30.04 in /  1017.2 hPa South 6.0 mph /  9.7 km/h 10.0 mph /  16.1 km/h 75 % 0.00 in /  0 mm
20:42 60.9 °F /  16.1 °C 52.9 °F /  11.6 °C 30.04 in /  1017.2 hPa South 5.0 mph /  8 km/h 10.0 mph /  16.1 km/h 75 % 0.00 in /  0 mm
20:47 60.7 °F /  15.9 °C 52.7 °F /  11.5 °C 30.04 in /  1017.2 hPa South 3.0 mph /  4.8 km/h 7.0 mph /  11.3 km/h 75 % 0.00 in /  0 mm
20:52 60.5 °F /  15.8 °C 52.9 °F /  11.6 °C 30.05 in /  1017.5 hPa SSW 2.0 mph /  3.2 km/h 9.0 mph /  14.5 km/h 76 % 0.00 in /  0 mm
20:57 60.3 °F /  15.7 °C 52.7 °F /  11.5 °C 30.04 in /  1017.2 hPa SSW 4.4 mph /  7.1 km/h 4.4 mph /  7.1 km/h 76 % 0.00 in /  0 mm
21:02 60.1 °F /  15.6 °C 52.5 °F /  11.4 °C 30.05 in /  1017.5 hPa WSW 3.4 mph /  5.5 km/h 7.0 mph /  11.3 km/h 76 % 0.00 in /  0 mm
21:07 59.9 °F /  15.5 °C 52.3 °F /  11.3 °C 30.05 in /  1017.5 hPa South 2.4 mph /  3.9 km/h 4.6 mph /  7.4 km/h 76 % 0.00 in /  0 mm
21:12 59.6 °F /  15.3 °C 52.4 °F /  11.3 °C 30.05 in /  1017.5 hPa SW 1.9 mph /  3.1 km/h 3.5 mph /  5.6 km/h 77 % 0.00 in /  0 mm
21:18 59.5 °F /  15.3 °C 52.3 °F /  11.3 °C 30.05 in /  1017.5 hPa SW 1.9 mph /  3.1 km/h 4.6 mph /  7.4 km/h 77 % 0.00 in /  0 mm
21:23 59.3 °F /  15.2 °C 52.1 °F /  11.2 °C 30.05 in /  1017.5 hPa SW 0.1 mph /  0.2 km/h 4.6 mph /  7.4 km/h 77 % 0.00 in /  0 mm
21:28 59.2 °F /  15.1 °C 52.3 °F /  11.3 °C 30.05 in /  1017.5 hPa SE 0.2 mph /  0.3 km/h 1.2 mph /  1.9 km/h 78 % 0.00 in /  0 mm
21:33 59.1 °F /  15.1 °C 52.2 °F /  11.2 °C 30.06 in /  1017.8 hPa South 0.1 mph /  0.2 km/h 1.2 mph /  1.9 km/h 78 % 0.00 in /  0 mm
21:38 59.0 °F /  15 °C 52.1 °F /  11.2 °C 30.06 in /  1017.8 hPa Calm   1.2 mph /  1.9 km/h 78 % 0.00 in /  0 mm
21:43 58.9 °F /  14.9 °C 52.1 °F /  11.2 °C 30.06 in /  1017.8 hPa SE 1.4 mph /  2.3 km/h 4.6 mph /  7.4 km/h 78 % 0.00 in /  0 mm
21:48 58.8 °F /  14.9 °C 52.0 °F /  11.1 °C 30.06 in /  1017.8 hPa SW 1.8 mph /  2.9 km/h 5.8 mph /  9.3 km/h 78 % 0.00 in /  0 mm
21:53 58.7 °F /  14.8 °C 52.2 °F /  11.2 °C 30.06 in /  1017.8 hPa SW 2.2 mph /  3.5 km/h 3.5 mph /  5.6 km/h 79 % 0.00 in /  0 mm
21:58 58.6 °F /  14.8 °C 52.1 °F /  11.2 °C 30.06 in /  1017.8 hPa SW 0.2 mph /  0.3 km/h 1.2 mph /  1.9 km/h 79 % 0.00 in /  0 mm
22:03 58.5 °F /  14.7 °C 52.0 °F /  11.1 °C 30.06 in /  1017.8 hPa SSW 3.2 mph /  5.1 km/h 6.9 mph /  11.1 km/h 79 % 0.00 in /  0 mm
22:08 58.4 °F /  14.7 °C 51.9 °F /  11.1 °C 30.06 in /  1017.8 hPa SSW 2.1 mph /  3.4 km/h 3.5 mph /  5.6 km/h 79 % 0.00 in /  0 mm
22:13 58.4 °F /  14.7 °C 51.9 °F /  11.1 °C 30.05 in /  1017.5 hPa SW 0.4 mph /  0.6 km/h 1.2 mph /  1.9 km/h 79 % 0.00 in /  0 mm
22:18 58.3 °F /  14.6 °C 51.8 °F /  11 °C 30.06 in /  1017.8 hPa SW 1.9 mph /  3.1 km/h 3.5 mph /  5.6 km/h 79 % 0.00 in /  0 mm
22:21 58.3 °F /  14.6 °C 51.8 °F /  11 °C 30.06 in /  1017.8 hPa SSW 2.5 mph /  4 km/h 5.0 mph /  8 km/h 79 % 0.00 in /  0 mm
22:26 58.2 °F /  14.6 °C 52.1 °F /  11.2 °C 30.06 in /  1017.8 hPa SW 1.6 mph /  2.6 km/h 5.0 mph /  8 km/h 80 % 0.00 in /  0 mm
22:31 58.2 °F /  14.6 °C 52.1 °F /  11.2 °C 30.06 in /  1017.8 hPa SW 0.2 mph /  0.3 km/h 3.5 mph /  5.6 km/h 80 % 0.00 in /  0 mm
22:36 58.1 °F /  14.5 °C 52.0 °F /  11.1 °C 30.06 in /  1017.8 hPa Calm   1.2 mph /  1.9 km/h 80 % 0.00 in /  0 mm
22:41 58.1 °F /  14.5 °C 52.0 °F /  11.1 °C 30.06 in /  1017.8 hPa Calm     80 % 0.00 in /  0 mm
22:46 58.0 °F /  14.4 °C 51.9 °F /  11.1 °C 30.06 in /  1017.8 hPa WSW 1.2 mph /  1.9 km/h 3.0 mph /  4.8 km/h 80 % 0.00 in /  0 mm
22:51 57.9 °F /  14.4 °C 51.8 °F /  11 °C 30.06 in /  1017.8 hPa SW 2.0 mph /  3.2 km/h 3.5 mph /  5.6 km/h 80 % 0.00 in /  0 mm
22:56 57.8 °F /  14.3 °C 51.7 °F /  10.9 °C 30.06 in /  1017.8 hPa WSW 2.8 mph /  4.5 km/h 4.6 mph /  7.4 km/h 80 % 0.00 in /  0 mm
23:01 57.7 °F /  14.3 °C 51.6 °F /  10.9 °C 30.06 in /  1017.8 hPa SW 1.8 mph /  2.9 km/h 4.0 mph /  6.4 km/h 80 % 0.00 in /  0 mm
23:07 57.6 °F /  14.2 °C 51.8 °F /  11 °C 30.06 in /  1017.8 hPa SSW 2.0 mph /  3.2 km/h 4.0 mph /  6.4 km/h 81 % 0.00 in /  0 mm
23:12 57.5 °F /  14.2 °C 51.7 °F /  10.9 °C 30.06 in /  1017.8 hPa SSW 1.2 mph /  1.9 km/h 3.5 mph /  5.6 km/h 81 % 0.00 in /  0 mm
23:17 57.4 °F /  14.1 °C 51.6 °F /  10.9 °C 30.06 in /  1017.8 hPa Calm   1.2 mph /  1.9 km/h 81 % 0.00 in /  0 mm
23:22 57.3 °F /  14.1 °C 51.2 °F /  10.7 °C 30.07 in /  1018.2 hPa Calm     80 % 0.00 in /  0 mm
23:27 57.2 °F /  14 °C 51.1 °F /  10.6 °C 30.07 in /  1018.2 hPa NNE 2.9 mph /  4.7 km/h 3.5 mph /  5.6 km/h 80 % 0.00 in /  0 mm
23:32 57.1 °F /  13.9 °C 51.3 °F /  10.7 °C 30.08 in /  1018.5 hPa North 0.7 mph /  1.1 km/h 2.3 mph /  3.7 km/h 81 % 0.00 in /  0 mm
23:37 56.9 °F /  13.8 °C 51.1 °F /  10.6 °C 30.08 in /  1018.5 hPa Calm     81 % 0.00 in /  0 mm
23:42 56.8 °F /  13.8 °C 51.0 °F /  10.6 °C 30.08 in /  1018.5 hPa North 0.5 mph /  0.8 km/h 1.2 mph /  1.9 km/h 81 % 0.00 in /  0 mm
23:47 56.5 °F /  13.6 °C 50.7 °F /  10.4 °C 30.08 in /  1018.5 hPa Calm     81 % 0.00 in /  0 mm
23:52 56.3 °F /  13.5 °C 50.5 °F /  10.3 °C 30.08 in /  1018.5 hPa Calm     81 % 0.00 in /  0 mm
23:57 56.1 °F /  13.4 °C 50.3 °F /  10.2 °C 30.08 in /  1018.5 hPa Calm     81 % 0.00 in /  0 mm
Crab Meadow Weather
Compliments of Weather Underground - 3 mb

Script developed by  Jim McMurry - jmcmurry@mwt.net Adapted for the template by  Wim van der Kuil - Leuven-Template.eu

Astronomy: The gravity on Jupiter is 2.6 times that of the Earth.